Weather in Shaulder

Kazakhstan     42˚46′29″N   68˚22′17″E
temp.,
°C
wind,
m/s
gust,
m/s
humid.,
%
clouds,
%
prec.,
mm/h
press.,
hPa
HPBL,
m
1 december, tue
tue100:00−2˚ne111758100 0.0 1031467
03:00−2˚ne111758100 0.0 1030373
06:00−3˚ene101557100 0.0 1030330
09:00−4˚ene91361100 0.0 1029273
12:00ene6846100 0.0 1029278
15:00+3˚e564294 0.0 1027370
18:00+1˚ene465386 0.0 1027154
21:00ene345499 0.0 102884
2 december, wed
wed200:00ne235891 0.0 102729
03:00−1˚ene126158 0.0 102721
06:00−1˚ese116377 0.0 102822
09:00s0063100 0.0 102822
12:00+6˚wsw244990 0.0 1028308
15:00+8˚wsw23450 0.0 1027555
18:00+4˚wnw12600 0.0 102722
21:00+3˚n23560 0.0 102822
3 december, thu
thu300:00+2˚nnw34588 0.0 102731
03:00nw34590 0.0 102860
06:00−1˚nw345824 0.0 1028107
09:00−2˚nw346416 0.0 102977
12:00+1˚nw334822 0.0 1029290
15:00+3˚wnw333996 0.0 1028421
18:00+1˚nw234698 0.0 102877
21:00−1˚nnw3558100 0.0 1029172
4 december, fri
fri400:00−3˚nw3567100 0.0 1029194
03:00−4˚nw357358 0.0 1029167
06:00−6˚nw466940 0.0 1029231
09:00−6˚wnw356493 0.0 1031243
12:00−4˚wnw444773 0.0 1031390
15:00−1˚wnw34360 0.0 1031618
18:00−4˚nw12460 0.0 103221
21:00−5˚nne12490 0.0 103321
5 december, sat
sat500:00−6˚ne12520 0.0 103323
03:00−7˚ene12550 0.0 103321
06:00−7˚ene11570 0.0 103221
09:00−7˚ene12560 0.0 103221
12:00−2˚nne11400 0.0 1032347
15:00nw22410 0.0 1030696
18:00−3˚n23550 0.0 103021
21:00−5˚ne23590 0.0 103022